Location: ?????????
(54.7630°N, 39.4991°E)
Time: 07:36:22
(UTC+00:00)

TSX-5 - Pass Details

Date: 14 April 2026
Orbit: 387 x 998 km, 68.9° (Epoch: 12 May)

Event Time Altitude Azimuth Distance (km) Brightness Sun altitude
Rises 19:36:19 0° 227° (SW) 3,152 7.5 -21.9°
Reaches altitude 10° 19:38:55 10° 231° (SW) 2,124 6.7 -22.0°
Maximum altitude 19:43:36 58° 311° (NW) 695 4.5 -22.4°
Drops below altitude 10° 19:47:30 10° 32° (NNE) 1,772 6.8 -22.6°
Sets 19:49:31 0° 36° (NE) 2,581 7.6 -22.7°
